Location: ??????
(42.0089°N, 44.3281°E)
Time: 19:34:21
(UTC+00:00)

SWARM A - Pass Details

Date: 24 October 2021
Orbit: 424 x 429 km, 87.4° (Epoch: 02 December)

Event Time Altitude Azimuth Distance (km) Brightness Sun altitude
Rises 15:15:20 0° 166° (SSE) 2,387 7.9 -13.2°
Reaches altitude 10° 15:17:24 10° 159° (SSE) 1,527 6.8 -13.6°
Maximum altitude 15:20:33 42° 87° (E) 630 4.5 -14.2°
Drops below altitude 10° 15:23:43 10° 15° (NNE) 1,542 6.8 -14.8°
Sets 15:25:49 0° 9° (N) 2,415 7.9 -15.2°
